GEFSGL_500_meanwind_018.txt.gz
Wind_Speed
51 50 49 48 48 45 44 42 41 39 37 35 33 34 34 33 32 31 30 29 28 28 28 28 28 28 29 29 29 30 30 30 31 30 30 31 31 33 35 38 38 39 40
43 41 40 41 40 39 38 37 36 34 33 32 31 31 31 30 29 28 28 27 27 28 29 29 30 30 31 31 32 32 33 32 32 31 31 30 29 29 30 32 35 38 38
35 32 31 32 33 34 34 34 33 32 31 31 31 30 28 27 26 26 27 27 27 28 29 30 31 32 32 33 34 35 35 35 34 34 33 31 29 27 27 27 28 31 34
28 25 22 22 26 26 28 29 29 29 29 29 27 26 24 24 24 25 25 26 27 28 29 31 31 32 33 34 35 36 36 37 37 36 36 34 32 30 28 26 25 26 27
21 19 17 15 16 16 17 18 19 22 23 22 21 21 21 22 23 24 25 26 26 28 29 30 31 32 33 34 35 36 36 36 37 37 37 36 34 33 30 28 25 24 23
18 14 13 12 12 12 12 13 13 15 16 17 18 19 21 22 23 24 24 25 26 27 29 30 31 32 33 34 35 35 35 35 36 35 35 35 34 33 32 31 28 25 23
15 14 13 12 11 11 11 12 13 14 15 16 18 19 20 21 22 23 23 24 26 27 28 29 30 31 32 33 33 34 34 34 34 34 34 33 33 32 33 32 31 29 27
14 13 12 11 11 11 12 13 14 15 17 18 19 20 20 20 21 21 22 23 24 25 26 27 29 30 31 31 31 32 33 33 34 34 34 33 33 32 32 32 32 31 30
13 12 12 12 12 13 14 15 16 17 18 18 18 18 17 16 17 17 18 19 20 21 21 22 23 24 26 27 28 29 30 31 32 33 34 34 34 33 33 32 32 32 32
11 11 12 12 13 14 15 16 16 17 16 15 14 13 13 13 13 13 14 15 16 16 18 19 20 22 24 25 26 28 29 29 30 31 31 32 32 32 33 33 33 33 33
10 11 11 12 12 12 13 13 13 13 12 11 11 11 11 11 11 11 12 13 14 15 16 18 19 21 23 24 26 28 29 30 31 32 32 32 32 32 32 32 32 32 33
9 9 10 9 9 9 8 8 8 8 8 9 9 10 10 10 11 11 11 12 13 14 15 16 18 20 22 24 25 27 28 30 31 32 32 33 33 34 33 33 33 33 33
10 10 9 8 8 7 7 7 7 7 8 8 9 9 10 10 11 11 11 12 13 14 16 18 19 20 22 23 24 25 27 28 28 29 30 31 31 32 33 34 34 35 35
12 11 10 9 8 8 7 8 8 8 9 9 9 10 10 10 11 12 12 13 14 16 17 18 19 20 21 22 23 23 23 24 25 25 26 26 27 28 30 31 33 34 36
15 13 12 12 11 10 10 10 10 10 10 11 11 11 12 12 13 13 13 14 15 16 17 18 19 21 21 22 22 23 23 23 23 23 24 24 24 24 25 26 28 31 33
18 16 15 14 13 13 13 13 13 13 13 13 13 13 14 14 14 14 14 14 14 15 15 17 18 19 21 22 22 23 23 23 23 23 23 23 23 23 23 23 24 26 29
21 20 18 17 16 16 16 16 17 17 17 16 16 16 16 15 14 13 13 12 12 13 14 15 17 19 21 22 23 23 23 23 23 22 23 23 23 23 23 23 24 25 26
25 23 22 21 20 19 18 18 18 18 18 18 18 18 17 15 14 12 11 11 10 11 13 15 17 18 20 22 23 24 24 24 23 23 22 22 22 22 22 22 23 23 25
29 27 26 24 23 22 22 21 20 20 20 19 19 18 17 15 14 12 11 10 10 10 12 14 16 18 20 22 24 25 26 26 26 25 24 23 22 22 22 22 23 23 24
31 30 29 27 26 25 25 24 23 22 21 20 19 19 18 16 15 13 11 10 9 10 11 13 15 17 19 22 24 26 26 27 27 27 26 25 24 24 24 24 24 25 25
31 30 29 28 28 27 26 26 24 23 22 21 21 20 19 17 16 15 13 11 10 10 11 13 14 17 19 22 24 26 27 28 28 28 27 26 26 25 25 25 25 25 26
28 28 28 27 27 26 26 25 25 23 22 22 22 21 20 19 18 16 15 13 12 11 12 13 14 16 18 21 24 26 27 29 30 30 29 28 27 27 26 25 25 26 26
26 25 25 25 24 24 23 23 23 23 22 22 22 22 21 20 20 18 17 15 14 13 13 14 15 17 18 21 24 27 29 31 32 32 32 31 30 29 28 26 26 26 25
24 23 23 22 21 20 20 20 20 20 20 20 21 21 22 21 21 20 19 18 17 16 16 16 17 18 19 22 25 28 30 32 34 35 34 34 33 31 30 28 27 26 25
24 23 22 21 19 18 17 16 16 17 18 18 19 20 21 21 21 21 20 19 18 18 18 18 18 19 20 23 25 28 32 34 36 37 37 36 35 33 31 29 27 26 25
26 25 23 21 20 18 16 14 14 14 15 16 18 19 20 20 21 21 20 20 19 19 19 19 19 20 22 24 26 29 32 35 37 38 39 38 36 34 32 30 28 26 25

GEFSGL_500_meanwind_024.txt.gz
Wind_Speed
45 46 46 47 47 47 48 48 49 50 50 49 45 42 41 40 39 38 37 35 33 32 32 31 30 28 27 27 28 28 28 28 29 29 30 30 31 32 32 32 33 32 32
43 43 43 42 42 42 42 42 41 40 39 39 37 36 35 35 34 33 32 31 32 31 31 30 28 26 26 26 27 28 29 30 30 31 32 32 33 34 35 35 35 35 35
39 39 38 37 36 35 34 32 29 28 28 28 28 29 29 30 31 31 29 29 29 30 29 27 25 25 25 25 26 27 29 30 31 32 33 34 35 36 37 38 38 37 37
35 34 32 32 31 29 28 25 22 21 20 21 22 22 23 25 27 27 27 27 28 27 25 23 22 22 24 25 26 27 28 30 31 32 33 34 35 37 38 38 38 38 38
31 30 29 28 26 24 22 19 18 15 13 13 16 18 21 23 23 24 24 24 23 21 21 20 20 21 22 23 25 27 28 29 31 32 33 35 36 37 38 38 38 38 38
29 27 26 25 22 20 17 14 12 10 8 5 6 10 13 15 16 17 18 18 18 18 18 18 20 21 22 23 24 25 27 28 29 31 32 33 35 36 37 37 36 37 37
28 25 23 22 19 17 15 12 10 8 6 4 4 6 8 10 11 13 14 15 16 17 17 18 19 20 21 22 22 24 25 26 27 28 29 31 33 34 34 35 35 36 36
27 24 21 19 17 16 14 11 10 8 7 6 6 7 8 9 10 11 12 13 14 15 16 16 17 17 17 18 19 20 22 23 24 26 27 29 30 32 32 33 33 34 34
26 23 20 18 17 15 13 12 11 10 9 8 8 8 9 9 10 10 10 10 11 11 11 12 13 13 14 15 16 18 19 21 23 25 27 29 30 31 32 33 33 33 33
26 23 19 17 16 15 13 12 11 11 11 10 9 9 8 7 7 7 8 8 8 7 8 9 10 11 12 14 15 17 20 22 24 26 27 29 30 31 32 32 33 33 32
25 22 19 17 15 15 13 12 11 11 10 10 9 7 6 5 5 5 5 4 5 6 7 8 9 10 12 14 16 18 20 22 24 26 27 29 29 30 30 31 31 30 30
25 23 20 18 16 14 12 11 11 10 9 8 7 5 4 4 4 4 4 4 5 6 7 8 10 12 14 15 16 18 20 22 24 26 27 28 28 28 28 28 28 28 28
27 24 21 19 17 15 13 12 11 10 9 8 6 5 4 4 4 4 5 6 6 8 9 10 11 12 13 14 16 18 20 22 24 26 28 28 28 28 27 26 26 26 25
29 27 24 21 18 17 15 13 12 10 9 8 7 6 6 6 6 6 7 8 9 10 11 11 12 12 13 14 16 18 20 23 25 26 27 28 27 27 26 25 24 23 23
32 30 27 24 21 19 17 15 13 11 10 9 8 8 8 8 9 9 9 10 11 12 12 12 12 12 12 13 15 17 19 22 23 25 26 26 26 25 24 23 23 22 22
34 33 30 27 24 22 20 17 15 14 13 12 11 11 11 12 12 12 13 13 13 13 13 13 12 11 11 12 14 16 18 20 22 24 25 25 25 24 24 22 22 21 21
35 35 34 30 27 25 23 20 18 16 15 14 14 14 14 14 15 15 15 15 15 14 14 12 11 10 11 12 13 15 18 20 22 23 25 26 25 25 24 22 22 22 21
36 37 36 33 30 27 25 22 20 19 17 17 16 16 16 17 17 17 17 17 16 15 14 12 11 11 10 11 12 15 17 20 22 24 26 27 27 27 25 24 23 22 22
37 38 38 36 33 30 27 25 22 20 19 18 17 17 17 18 18 18 18 17 16 15 14 13 12 11 11 11 12 14 17 20 23 25 27 28 29 29 28 27 25 24 23
38 38 39 39 36 33 30 28 25 23 21 20 19 19 18 18 19 19 19 18 17 16 16 15 14 13 12 12 12 14 17 20 23 25 27 29 30 30 30 29 28 26 25
38 38 39 40 39 36 33 30 27 25 23 21 20 20 20 19 19 19 19 18 18 17 17 16 16 15 14 13 14 15 17 19 22 25 27 29 31 32 32 32 31 29 28
38 38 38 40 39 37 34 32 30 27 25 24 21 20 20 19 18 19 19 19 19 18 17 17 17 16 15 15 15 16 17 19 22 25 28 30 32 33 34 34 34 32 30
39 36 35 37 38 37 35 33 31 28 26 25 22 19 19 19 18 18 19 19 19 19 18 18 18 18 17 17 17 18 19 20 22 25 28 31 33 34 35 36 36 35 32
40 35 33 34 34 34 34 32 30 28 26 23 20 18 18 18 17 17 18 18 19 19 19 19 19 19 19 19 19 19 20 22 24 26 28 30 33 35 37 38 38 37 35
39 34 31 30 30 31 32 31 29 26 24 21 18 16 16 16 15 15 16 16 17 18 18 18 19 20 20 20 20 20 21 23 25 27 28 30 32 35 37 39 39 38 36
40 35 31 28 27 28 28 28 26 24 21 19 16 14 13 13 13 13 13 14 15 16 17 17 18 19 20 20 20 20 20 22 24 27 29 31 33 35 37 39 40 39 38

GEFSGL_500_meanwind_030.txt.gz
Wind_Speed
40 40 39 37 36 36 37 38 40 40 41 42 42 43 42 41 39 38 37 37 35 34 33 32 30 28 28 26 26 27 27 26 26 27 27 25 25 25 25 26 27 28 29
39 39 38 36 35 35 35 35 35 36 37 37 38 37 36 35 34 34 32 31 30 30 29 27 26 26 25 25 26 26 26 25 24 24 24 24 24 24 25 26 27 29 30
38 38 37 36 35 34 33 33 33 33 33 33 32 31 30 29 29 27 27 26 26 26 26 25 25 24 25 25 25 24 24 23 22 22 22 22 23 24 25 27 28 30 31
38 37 36 35 34 32 32 31 31 30 29 28 27 26 25 24 22 19 20 22 24 24 25 25 24 25 25 24 24 23 23 22 21 20 21 22 23 24 26 28 29 30 32
37 36 34 34 33 31 30 30 28 26 25 24 22 21 20 18 17 17 17 19 21 22 23 23 24 24 24 23 22 21 20 19 19 19 20 21 23 25 26 28 29 31 32
37 36 33 32 32 30 29 28 26 24 22 21 19 18 16 14 14 16 17 19 20 21 22 23 23 23 22 20 18 18 18 17 17 19 20 21 23 24 25 27 28 29 31
38 36 34 32 31 29 28 26 24 22 21 20 18 16 14 13 12 13 13 14 16 18 18 19 18 16 15 14 14 14 15 15 16 17 18 19 20 22 23 25 26 28 30
39 37 35 32 30 28 27 25 23 21 20 19 17 15 13 12 12 12 12 12 12 12 13 12 12 11 11 11 11 11 11 12 13 14 15 16 18 19 21 23 25 28 30
40 38 36 33 30 28 26 24 22 21 19 18 17 15 13 13 12 11 10 10 9 8 8 8 9 9 8 8 8 9 10 10 11 12 13 15 17 19 21 23 25 28 30
42 39 37 34 32 29 26 24 22 20 19 17 16 14 13 11 10 8 7 7 8 8 7 7 6 6 6 6 7 7 8 8 9 11 13 15 17 19 21 24 26 28 30
44 41 37 35 33 30 27 25 22 20 19 17 15 13 11 9 7 7 7 8 8 8 7 7 6 6 6 6 6 6 6 7 9 10 12 14 16 18 21 23 25 27 28
47 42 38 36 34 32 29 26 23 21 19 16 15 13 11 9 9 9 9 9 8 8 7 7 6 6 5 5 5 5 6 7 8 10 12 14 16 18 20 22 24 25 27
49 45 41 37 34 32 31 28 24 22 19 17 15 13 12 11 11 11 10 10 9 8 7 6 6 6 5 5 5 5 6 7 8 10 11 13 16 18 21 22 24 25 25
51 48 45 40 37 34 33 30 26 23 20 18 16 15 14 14 13 13 12 11 10 9 8 7 7 6 6 6 6 5 5 6 8 9 12 14 17 19 21 23 24 25 25
50 48 46 41 39 36 34 32 28 25 22 20 19 18 17 16 15 14 14 12 11 10 9 8 8 8 8 7 6 5 5 6 8 10 12 15 17 20 22 23 24 25 25
48 48 46 42 39 38 36 34 31 27 25 22 21 20 19 17 16 15 14 13 12 11 10 9 9 9 9 8 7 6 5 6 7 9 12 15 17 20 22 24 25 26 26
45 46 45 42 39 40 39 36 33 30 27 25 23 22 20 18 17 16 15 13 12 12 11 11 10 10 10 8 7 6 5 6 7 9 11 14 17 19 22 24 26 27 28
40 43 42 41 40 40 40 38 35 32 29 27 25 24 22 19 17 16 15 14 13 12 12 12 11 11 10 9 8 7 7 6 7 9 11 13 16 19 21 24 26 28 30
36 40 41 41 40 40 40 39 37 34 31 29 27 25 22 20 18 16 15 14 14 13 13 12 12 12 11 11 10 9 8 8 8 9 11 13 15 18 20 23 26 28 30
34 38 39 40 40 39 40 39 38 36 32 29 27 25 23 21 18 17 16 15 14 14 14 13 13 13 13 13 12 11 10 10 10 11 12 14 15 17 20 22 25 28 30
33 37 39 39 39 39 40 39 37 36 33 30 28 26 24 21 19 17 15 15 15 14 14 14 14 14 14 14 14 13 13 13 13 13 14 15 17 18 20 22 25 27 30
33 37 39 39 38 39 39 38 37 36 34 32 29 26 23 21 18 17 16 15 15 15 15 15 15 15 15 15 15 15 15 15 15 15 16 17 18 20 21 23 25 28 30
33 37 38 38 38 40 39 39 38 37 35 32 29 26 23 21 19 18 17 17 16 16 15 15 15 16 16 16 16 16 16 17 17 17 18 19 20 21 22 24 26 28 30
34 36 37 38 38 40 39 38 37 37 35 32 28 25 23 21 19 18 17 17 17 16 16 15 16 16 16 16 17 17 18 18 18 19 20 21 21 22 24 26 28 30 32
34 35 37 38 38 38 38 37 37 36 35 32 28 26 24 22 20 19 18 17 17 16 16 16 16 16 16 17 17 18 18 18 19 19 20 21 21 23 25 27 29 32 33
35 35 35 36 37 37 37 37 36 35 34 31 28 26 24 22 20 19 18 17 16 16 16 16 16 16 16 16 17 17 18 18 19 19 19 20 21 23 26 28 31 34 36

GEFSGL_500_meanwind_036.txt.gz
Wind_Speed
39 39 39 39 39 39 38 38 37 37 37 36 35 34 33 32 32 33 34 35 36 36 36 35 35 34 33 32 31 29 28 27 26 25 25 25 25 25 27 28 29 31 31
43 42 42 41 41 40 40 39 37 37 37 36 35 33 31 30 30 30 30 31 31 31 32 32 31 31 30 28 27 26 25 25 25 25 24 25 24 24 24 24 26 28 30
48 46 45 45 44 42 41 39 38 37 37 36 34 32 30 28 27 26 26 26 27 27 27 27 27 26 26 25 24 24 24 25 25 25 25 24 24 22 22 22 22 24 25
53 51 49 47 46 44 42 40 38 37 36 35 34 32 29 27 26 24 22 21 21 21 21 22 23 23 24 25 24 23 24 23 23 22 23 23 22 21 21 21 20 21 22
56 54 52 50 48 46 43 41 40 37 36 34 33 31 28 26 25 23 21 19 19 18 19 20 21 22 24 24 23 23 22 21 21 21 21 20 19 19 19 19 19 20 21
61 60 58 55 52 49 46 43 41 38 36 33 32 30 27 26 24 22 20 18 16 16 17 18 20 21 22 22 21 21 20 20 21 20 19 18 17 17 17 18 18 19 20
68 67 64 60 56 52 48 45 42 39 36 33 31 29 27 25 23 20 19 17 16 15 16 17 19 20 20 20 19 18 18 18 18 17 16 15 15 16 16 16 16 17 19
75 72 69 65 60 56 52 48 44 40 37 34 31 29 26 24 22 20 18 16 15 13 12 12 13 15 16 16 15 15 16 16 16 14 13 13 14 13 13 13 14 15 17
77 74 70 67 63 58 54 50 46 42 39 34 31 29 26 23 21 19 17 14 12 11 11 10 10 11 12 13 13 14 13 12 12 11 10 10 10 10 11 12 13 14 15
72 69 65 62 59 56 53 49 46 42 40 36 32 29 25 22 20 18 15 12 10 8 8 9 10 11 12 12 11 11 11 10 10 9 9 9 9 9 9 10 11 12 14
59 57 55 53 53 52 51 49 46 43 40 37 33 29 26 22 19 17 14 11 10 10 9 9 10 10 11 11 11 10 10 10 9 8 8 7 7 7 7 8 9 10 12
46 44 42 42 44 46 47 47 46 44 41 37 33 30 26 23 20 17 14 12 12 12 12 11 11 11 11 11 11 10 10 9 8 7 7 6 5 5 5 6 7 9 11
38 37 38 38 39 41 44 46 45 44 42 38 34 31 27 24 21 18 16 15 14 14 13 12 12 12 11 11 10 9 8 8 7 6 5 4 4 3 3 4 6 8 10
36 35 35 35 35 36 39 44 46 45 42 38 34 31 27 24 22 20 19 18 17 16 15 14 13 12 11 10 9 8 8 8 7 6 5 4 3 2 2 3 6 8 11
35 34 34 33 33 33 35 42 46 46 42 39 36 32 28 25 24 22 21 20 19 18 16 15 13 12 11 10 9 9 9 8 7 6 5 4 3 1 2 4 6 9 12
36 34 34 32 30 28 32 39 45 46 42 39 36 33 30 28 26 24 23 22 21 19 17 15 13 12 11 11 10 10 10 9 9 7 6 5 3 2 3 5 7 10 13
37 35 33 30 28 25 29 37 44 45 41 39 38 35 32 30 27 26 25 24 22 20 17 15 13 12 12 11 11 11 11 10 10 8 7 5 4 3 4 5 8 11 13
37 33 30 27 25 23 27 35 40 43 42 41 39 37 34 31 29 27 26 24 22 20 17 16 14 13 12 12 12 12 12 12 10 9 8 7 6 5 6 7 9 12 15
33 30 26 24 22 22 28 34 39 42 41 41 40 38 36 33 31 29 26 24 22 20 18 16 14 14 13 13 13 13 13 13 11 10 10 9 8 8 9 10 11 13 16
28 25 23 21 21 24 30 34 39 41 40 41 41 39 36 33 30 28 26 24 22 20 17 16 15 14 14 14 14 14 14 14 13 12 11 11 11 11 12 13 14 15 17
24 21 20 19 22 25 31 34 39 39 41 41 40 39 36 33 30 29 27 25 22 20 17 16 15 15 15 15 15 15 15 15 14 14 13 13 13 13 14 15 16 17 18
21 19 18 19 23 27 33 37 40 40 41 41 41 40 37 34 32 30 28 25 22 19 17 16 15 15 15 15 15 15 15 15 16 15 15 15 16 16 17 18 18 18 19
17 17 19 20 25 29 34 37 39 39 39 39 40 38 36 33 31 29 26 23 21 18 16 15 15 15 15 15 15 14 15 15 15 16 17 17 18 18 19 20 19 20 21
16 19 21 23 27 31 35 37 38 37 38 40 39 37 35 32 30 28 26 23 21 18 16 15 15 15 14 14 14 14 14 14 15 16 17 18 18 19 20 20 21 21 23
18 22 25 27 30 34 37 38 38 38 39 39 38 36 34 31 29 27 25 22 19 16 15 15 15 14 14 13 14 14 14 15 15 16 17 18 19 20 21 21 22 23 24
23 26 28 30 33 35 37 38 38 38 38 37 36 35 32 29 27 25 22 19 17 15 14 14 14 14 14 14 14 14 14 15 16 17 17 18 19 21 22 22 23 24 26

GEFSGL_500_meanwind_042.txt.gz
Wind_Speed
48 47 46 45 43 42 40 39 38 36 35 33 32 31 31 31 30 30 30 30 30 29 29 29 29 31 32 33 34 35 35 35 35 34 34 34 34 32 30 29 28 29 29
53 52 51 50 49 47 45 42 40 39 37 35 34 33 32 31 31 30 30 30 30 29 28 27 27 28 29 30 31 32 33 33 33 33 33 33 32 31 30 29 28 27 27
56 56 56 56 55 54 51 47 46 44 41 38 37 36 34 33 32 31 30 29 29 28 27 27 26 26 27 28 29 30 30 31 31 31 31 31 30 30 30 30 29 28 27
60 61 61 62 61 59 57 54 52 50 47 44 42 40 38 36 34 32 31 30 29 28 27 27 25 24 24 26 27 28 28 29 29 29 29 29 30 31 30 28 29 27 27
68 68 68 67 66 65 63 60 58 56 53 50 47 44 41 38 36 34 32 31 29 28 27 26 24 23 22 23 23 25 26 26 27 27 28 29 29 29 28 27 26 25 25
74 75 76 75 74 72 70 67 65 63 60 56 52 49 45 42 39 36 34 32 30 28 27 25 24 23 22 21 21 23 25 26 26 28 29 30 29 26 25 25 25 24 23
82 82 83 82 81 78 76 73 71 69 66 62 56 51 47 44 41 38 36 33 31 29 27 25 24 22 22 22 22 23 25 27 28 28 28 28 27 26 24 23 22 21 20
83 83 84 84 83 81 80 78 76 73 69 65 58 52 48 45 42 39 37 34 31 29 27 25 23 22 21 22 22 24 24 24 26 26 25 24 23 22 21 20 19 19 18
72 73 73 73 73 73 72 72 70 68 65 61 56 52 48 46 43 40 37 34 31 29 27 24 23 22 21 21 22 23 23 24 24 23 22 20 19 20 19 18 17 16 14
51 52 53 53 53 54 55 55 56 56 56 54 52 49 46 44 42 40 37 33 30 28 25 24 22 21 20 21 20 20 21 21 21 20 19 18 17 17 16 14 14 13 12
34 34 33 34 34 35 37 39 40 42 44 46 47 47 46 44 41 39 36 33 30 27 25 23 20 19 18 18 18 18 18 18 18 17 17 16 15 14 13 12 11 11 10
31 29 28 28 28 28 27 28 29 31 33 37 41 44 46 46 42 39 37 33 30 27 24 22 20 19 18 18 18 17 17 16 16 16 15 15 13 12 12 11 10 10 9
32 30 28 26 26 25 25 26 27 28 29 30 34 40 45 46 44 40 36 33 30 27 25 22 21 20 20 19 19 18 17 17 16 15 14 13 13 12 12 11 10 9 8
34 32 30 29 28 27 26 26 26 27 29 29 32 39 43 44 43 39 36 33 30 28 25 24 22 20 20 20 19 19 18 17 16 15 15 14 13 13 12 11 9 9 7
37 35 33 31 30 29 27 26 26 26 28 30 32 37 41 42 43 39 36 34 31 28 27 25 23 22 21 21 20 19 18 17 16 16 15 15 14 12 12 11 10 9 7
39 37 34 33 31 30 28 27 26 26 28 30 33 35 39 42 43 40 37 35 33 31 29 27 25 24 23 22 20 19 18 17 17 16 16 15 14 13 12 12 11 10 8
38 36 34 32 31 29 28 27 26 25 25 28 32 33 37 41 43 41 39 37 35 33 31 28 27 26 24 22 20 19 18 18 17 17 17 15 14 14 13 12 12 11 10
36 34 32 31 29 27 27 26 25 24 24 26 29 32 37 42 44 42 40 38 36 34 32 30 28 26 24 22 21 19 19 19 18 18 17 16 15 14 14 13 12 12 11
31 30 29 27 26 25 24 24 23 23 23 25 28 33 39 43 45 44 41 38 36 34 32 30 29 26 24 22 21 19 19 19 19 18 18 17 16 15 15 14 14 13 13
27 26 25 24 23 22 22 22 22 22 23 26 29 34 40 43 45 44 41 38 37 35 33 31 28 26 23 22 20 19 19 19 19 19 18 18 17 16 16 15 15 15 15
22 21 20 20 19 18 19 20 21 23 25 28 32 37 41 44 44 41 39 37 36 34 32 30 28 25 23 21 19 19 19 19 19 19 18 18 17 17 17 17 16 16 17
15 15 15 15 15 17 18 20 21 24 28 31 35 40 43 44 42 40 38 36 35 33 31 29 27 24 22 20 19 18 18 18 19 19 18 18 18 17 17 17 17 18 18
11 12 13 15 17 18 20 23 25 28 31 35 38 40 43 43 41 40 38 36 34 31 29 27 25 23 21 19 18 18 18 18 18 18 19 19 18 18 18 19 19 19 20
7 11 14 17 20 21 24 27 29 31 34 37 39 41 41 41 40 38 37 34 32 30 27 25 23 21 19 18 17 17 17 17 17 17 18 18 19 19 20 20 21 21 22
12 17 21 23 24 26 28 30 31 32 35 37 38 40 40 39 37 35 34 32 30 28 25 23 21 19 18 17 17 16 16 16 17 17 18 18 19 20 20 21 22 22 23
21 24 26 27 28 30 31 32 32 33 36 37 37 38 38 36 34 32 31 29 27 25 23 21 19 18 17 17 16 15 15 16 16 17 17 18 19 20 21 22 23 24 24

GEFSGL_500_meanwind_048.txt.gz
Wind_Speed
59 59 60 60 60 59 58 57 55 53 51 50 48 46 43 42 42 40 39 37 36 34 33 32 30 29 29 28 27 27 26 26 25 25 26 27 27 27 27 26 26 26 25
62 63 63 64 64 64 63 62 61 59 57 54 52 49 47 45 44 42 41 39 37 35 34 32 31 30 29 29 27 26 26 26 25 24 25 26 26 27 26 25 25 25 25
64 64 65 65 66 66 66 65 65 63 61 59 57 54 52 49 47 45 43 41 38 37 35 33 32 31 30 29 28 26 26 25 25 24 24 25 26 26 26 25 25 24 24
68 69 69 70 70 70 70 69 68 68 66 64 62 59 56 53 50 48 46 43 41 39 37 35 33 31 30 29 28 27 26 25 24 24 24 24 25 25 26 25 24 24 24
71 72 74 75 75 75 75 75 75 75 73 70 67 65 61 57 55 52 49 47 44 41 39 37 35 32 31 30 29 27 26 25 24 24 24 24 25 24 24 24 24 24 24
68 69 69 71 72 74 76 77 78 79 78 77 75 72 68 65 62 58 54 51 48 45 43 39 36 34 32 31 30 28 27 26 24 24 23 24 25 25 24 23 23 23 23
54 53 53 55 57 60 63 67 70 73 75 76 76 76 73 70 66 62 58 55 51 47 43 41 38 35 33 32 31 29 28 26 25 24 24 24 24 24 23 22 22 23 23
39 37 37 36 37 39 41 44 47 51 56 61 65 68 69 68 67 65 60 56 53 49 44 41 38 35 33 33 32 30 28 27 25 24 23 22 23 24 23 23 24 23 23
33 33 32 31 31 30 31 31 33 34 37 41 45 50 53 56 58 58 57 55 53 49 44 41 39 36 34 33 32 30 27 26 24 24 23 23 23 23 22 21 22 22 21
34 33 33 32 31 30 30 29 28 28 29 31 32 34 38 42 45 48 50 51 50 47 43 40 38 36 34 33 32 29 27 25 23 23 23 22 22 22 22 21 20 20 19
38 37 37 36 34 33 31 29 28 27 27 27 26 28 30 33 37 41 43 45 46 45 41 39 37 35 33 32 31 29 26 25 23 22 22 21 20 19 19 19 19 19 17
41 40 39 38 36 34 32 30 28 27 25 24 23 24 25 28 32 37 40 42 43 42 40 39 37 35 32 30 29 27 25 23 21 21 20 19 18 18 18 18 18 18 15
42 41 40 39 37 35 33 31 29 27 25 24 22 21 22 25 28 33 38 41 42 42 42 39 36 34 31 29 27 24 22 21 20 19 18 17 16 17 17 16 16 15 15
44 42 41 39 37 35 33 31 30 28 26 25 23 21 21 21 24 29 33 40 42 42 41 39 36 33 30 27 25 24 21 20 20 18 18 18 18 17 17 17 17 16 15
43 41 39 38 35 33 32 31 30 28 27 25 23 22 21 20 21 25 30 35 41 42 40 37 35 33 29 26 24 22 20 19 19 19 18 18 19 19 18 18 17 15 14
40 39 38 37 35 33 32 30 29 28 27 25 23 23 22 20 21 23 26 31 38 41 39 37 35 31 28 26 24 23 23 22 21 20 20 20 20 19 18 17 16 15 14
37 36 34 33 32 31 30 28 27 26 25 24 23 23 22 21 21 23 25 27 34 39 38 36 34 31 29 28 26 25 24 23 22 22 21 21 20 18 17 16 16 15 14
33 31 30 28 27 27 26 25 25 24 24 23 23 22 22 21 22 24 25 27 32 36 36 35 34 32 30 29 27 26 25 24 23 22 21 20 19 18 17 16 15 14 13
27 26 24 24 23 23 22 22 21 21 20 20 21 20 19 21 23 24 25 28 31 34 36 35 34 32 31 30 29 27 26 25 23 23 21 20 19 18 16 15 14 14 13
22 20 18 16 17 17 17 18 18 18 18 18 19 18 19 21 23 25 27 30 33 34 35 35 34 33 32 31 29 27 26 24 23 22 21 19 18 17 16 15 14 14 13
16 14 11 9 10 11 13 14 15 15 16 17 18 19 20 22 24 26 30 33 34 34 36 35 34 33 32 30 29 27 25 23 22 21 20 18 17 16 15 15 14 14 15
11 6 3 3 5 7 11 13 14 15 17 18 19 20 21 22 25 30 32 34 35 36 36 35 34 32 31 29 28 26 24 22 20 19 18 17 17 16 16 15 15 15 16
9 5 3 3 6 9 12 15 16 16 18 19 20 21 22 26 30 32 34 36 37 36 35 34 33 31 30 28 26 25 22 21 19 19 18 17 16 16 16 16 16 16 17
13 11 10 10 11 13 14 15 17 18 21 23 23 24 27 30 33 35 36 37 36 35 34 33 31 30 28 26 24 22 21 19 18 17 17 17 16 16 16 16 17 18 19
18 17 17 17 18 18 19 20 21 23 25 26 26 28 31 34 35 35 36 35 35 33 32 30 29 27 25 23 21 20 18 17 17 16 16 16 16 16 17 17 18 19 20
22 22 22 22 22 23 24 25 25 27 27 28 30 34 35 34 34 35 34 34 33 31 29 28 26 24 22 20 18 17 16 16 16 16 16 16 16 17 17 18 19 20 21

GEFSGL_500_meanwind_054.txt.gz
Wind_Speed
60 60 61 61 61 61 61 61 61 60 59 58 57 57 56 55 53 52 50 49 47 46 44 42 40 38 36 35 33 31 29 27 25 25 24 23 23 23 23 24 24 24 25
64 65 65 66 66 66 66 66 66 65 64 63 62 60 59 58 57 56 54 53 51 49 47 46 43 41 38 37 35 33 31 28 26 25 24 23 22 22 23 23 23 24 24
68 68 67 68 68 68 69 69 69 69 68 67 66 65 63 62 60 59 57 55 53 52 50 48 45 43 40 38 36 34 32 30 27 26 24 23 22 22 22 22 22 23 24
66 65 64 63 62 62 63 64 65 67 68 68 69 68 67 66 64 62 60 58 56 54 53 51 48 46 43 40 38 36 34 31 28 26 25 23 22 21 21 21 22 22 23
59 56 53 51 49 49 48 49 51 54 57 60 63 65 67 67 67 66 64 61 59 57 54 53 51 48 46 42 40 37 35 32 29 27 25 23 22 21 21 21 21 21 21
49 46 43 42 40 38 37 36 36 37 40 44 48 53 58 62 65 66 65 64 62 59 57 54 52 50 48 45 41 39 36 33 30 28 26 24 22 21 20 20 20 20 20
44 42 41 39 36 34 32 30 29 29 29 30 33 37 42 48 55 61 64 64 63 62 59 56 53 50 47 45 43 40 38 34 31 29 27 24 23 21 21 21 21 20 20
43 42 41 39 36 34 33 32 32 31 30 29 28 28 30 34 39 45 52 57 60 62 61 59 56 53 50 47 45 42 39 36 32 30 28 26 24 22 21 21 21 20 20
45 44 42 41 39 38 37 36 35 34 32 31 29 29 28 28 31 34 38 43 49 53 57 59 58 55 53 50 46 42 39 36 33 31 29 27 24 23 22 21 21 21 21
46 45 44 42 41 40 39 39 37 36 34 33 31 30 28 28 28 30 32 35 39 44 49 53 55 55 54 51 48 44 40 37 34 31 30 27 24 23 22 22 21 21 21
46 43 42 42 42 41 39 38 37 36 35 33 31 29 27 26 26 26 28 30 33 38 42 47 50 52 52 50 48 45 41 38 35 32 30 28 25 23 23 22 22 22 22
44 42 41 40 41 40 39 38 37 36 34 33 31 29 27 26 24 24 25 27 30 33 37 41 46 49 50 49 47 44 42 38 35 33 31 28 26 24 24 23 23 22 22
42 40 38 37 37 37 37 37 36 35 33 31 30 28 27 25 24 23 22 24 27 30 35 38 43 46 47 46 45 44 41 37 34 32 30 28 26 25 24 24 24 23 22
39 36 35 34 33 33 34 34 34 33 31 30 28 27 26 25 23 22 21 21 24 29 34 36 38 43 46 45 44 43 41 37 33 31 29 27 26 25 24 24 23 23 22
35 32 31 31 30 30 30 30 31 31 30 28 27 26 24 23 22 21 20 20 23 29 33 36 38 43 45 45 43 41 39 35 32 30 27 26 25 25 24 23 22 22 21
32 30 28 27 27 27 26 26 27 27 27 26 26 24 23 22 21 20 19 19 22 28 32 36 38 42 43 43 41 39 37 34 31 29 27 26 25 24 24 23 22 22 22
27 25 23 22 22 21 20 20 21 23 24 24 23 23 21 20 19 18 18 19 20 26 31 35 37 39 42 42 40 38 36 34 31 29 28 27 26 25 25 24 24 23 23
24 21 19 17 16 14 14 15 17 18 20 21 21 21 20 19 18 18 18 18 18 24 29 34 37 39 41 41 39 37 35 33 31 30 29 28 27 27 25 25 25 24 23
22 18 16 13 11 9 10 12 14 15 17 18 19 19 19 18 18 18 18 17 18 22 28 33 36 38 40 40 38 36 34 33 31 31 30 29 29 28 26 25 25 24 23
23 19 16 12 7 4 6 8 11 14 16 17 17 18 18 18 18 19 18 18 18 21 27 32 35 38 40 40 38 36 34 33 32 32 31 30 29 28 27 26 25 24 23
24 20 16 12 7 4 5 8 10 12 15 16 17 18 19 19 19 19 19 19 20 24 29 32 35 38 39 38 36 35 34 34 33 32 32 31 30 28 27 26 25 23 22
24 22 18 14 12 11 10 10 11 13 16 17 18 19 20 20 20 20 21 22 24 27 30 32 34 36 38 36 34 34 34 33 33 32 32 30 29 28 26 25 23 22 21
27 24 21 17 16 14 14 13 14 16 18 19 19 21 21 22 22 23 24 26 29 31 31 32 34 35 36 35 33 33 33 33 32 31 30 29 28 26 25 23 22 21 20
29 27 24 21 19 18 17 17 18 19 20 21 22 24 24 24 26 26 28 30 31 31 31 32 33 34 34 33 32 32 32 31 30 29 28 27 26 25 23 22 21 21 20
29 27 26 25 23 21 21 20 21 21 22 22 23 24 26 27 28 30 32 33 32 32 32 32 33 33 32 31 30 30 29 29 28 27 26 25 24 23 22 21 20 20 20
30 28 27 26 25 25 24 24 24 24 24 24 26 27 28 29 30 32 33 33 32 31 31 31 31 30 30 29 28 27 27 26 25 24 23 22 21 20 20 20 19 19 20